�������l�o���
Date,Time,MP-1(��Sv/h),MP-2(��Sv/h),MP-3(��Sv/h),MP-4(��Sv/h),MP-5(��Sv/h),MP-6(��Sv/h),MP-7(��Sv/h),MP-8(��Sv/h),����,����(m/s),���J
2019/09/10,00:00,0.727,1.016,0.703,1.261,0.897,0.414,0.726,0.685,�k��,5.3,��
2019/09/10,00:10,0.730,1.017,0.703,1.261,0.897,0.415,0.726,0.686,�k��,6.0,��
2019/09/10,00:20,0.728,1.015,0.704,1.262,0.899,0.414,0.725,0.685,���k��,5.1,��
2019/09/10,00:30,0.728,1.016,0.704,1.263,0.896,0.415,0.726,0.685,���k��,6.8,��
2019/09/10,00:40,0.729,1.014,0.703,1.262,0.898,0.414,0.725,0.686,��,7.0,��
2019/09/10,00:50,0.731,1.014,0.703,1.261,0.900,0.416,0.724,0.686,��,6.5,��
2019/09/10,01:00,0.729,1.014,0.704,1.260,0.899,0.415,0.725,0.684,���쐼,5.1,��
2019/09/10,01:10,0.727,1.014,0.705,1.263,0.899,0.415,0.724,0.685,���쐼,6.0,��
2019/09/10,01:20,0.730,1.016,0.703,1.261,0.898,0.415,0.725,0.688,���쐼,4.1,��
2019/09/10,01:30,0.728,1.012,0.708,1.261,0.900,0.416,0.726,0.685,���쐼,2.8,��
2019/09/10,01:40,0.726,1.015,0.705,1.263,0.899,0.416,0.724,0.686,��,3.3,��
2019/09/10,01:50,0.729,1.011,0.704,1.259,0.896,0.416,0.723,0.685,���쐼,3.3,��
2019/09/10,02:00,0.729,1.015,0.705,1.261,0.900,0.413,0.726,0.687,��,3.2,��
2019/09/10,02:10,0.732,1.016,0.705,1.261,0.900,0.415,0.725,0.685,�k��,2.0,��
2019/09/10,02:20,0.728,1.015,0.706,1.262,0.901,0.414,0.724,0.686,�k,1.7,��
2019/09/10,02:30,0.730,1.015,0.705,1.260,0.900,0.414,0.726,0.687,�k�k��,1.7,��
2019/09/10,02:40,0.730,1.018,0.706,1.262,0.899,0.415,0.725,0.686,�k,1.5,��
2019/09/10,02:50,0.728,1.014,0.703,1.262,0.899,0.415,0.727,0.687,�k,1.4,��
2019/09/10,03:00,0.730,1.016,0.704,1.262,0.899,0.415,0.725,0.686,-,CALM,��
2019/09/10,03:10,0.728,1.014,0.704,1.262,0.902,0.414,0.724,0.687,��,1.7,��
2019/09/10,03:20,0.728,1.015,0.705,1.264,0.900,0.416,0.725,0.686,���쐼,3.3,��
2019/09/10,03:30,0.731,1.013,0.704,1.262,0.902,0.415,0.725,0.688,��,4.4,��
2019/09/10,03:40,0.729,1.016,0.705,1.261,0.902,0.417,0.726,0.685,��,4.0,��
2019/09/10,03:50,0.729,1.016,0.702,1.262,0.900,0.414,0.725,0.687,���쐼,4.0,��
2019/09/10,04:00,0.729,1.016,0.704,1.265,0.901,0.416,0.726,0.687,��,4.8,��
2019/09/10,04:10,0.730,1.015,0.705,1.261,0.901,0.415,0.726,0.688,���쐼,4.9,��
2019/09/10,04:20,0.729,1.014,0.705,1.264,0.901,0.415,0.725,0.685,���쐼,5.5,��
2019/09/10,04:30,0.728,1.015,0.704,1.261,0.900,0.415,0.726,0.687,���쐼,4.8,��
2019/09/10,04:40,0.728,1.015,0.705,1.263,0.903,0.415,0.726,0.687,���쐼,3.2,��
2019/09/10,04:50,0.731,1.015,0.702,1.263,0.903,0.414,0.725,0.688,���쐼,2.9,��
2019/09/10,05:00,0.729,1.014,0.705,1.265,0.901,0.416,0.724,0.688,��,3.6,��
2019/09/10,05:10,0.729,1.013,0.704,1.262,0.902,0.416,0.726,0.686,���쐼,4.5,��
2019/09/10,05:20,0.728,1.014,0.705,1.264,0.900,0.416,0.726,0.686,���쐼,5.4,��
2019/09/10,05:30,0.728,1.016,0.704,1.264,0.901,0.415,0.727,0.687,���쐼,4.9,��
2019/09/10,05:40,0.729,1.014,0.704,1.262,0.903,0.415,0.726,0.686,���쐼,4.4,��
2019/09/10,05:50,0.730,1.013,0.705,1.262,0.902,0.415,0.725,0.687,���쐼,4.6,��
2019/09/10,06:00,0.730,1.016,0.705,1.264,0.904,0.415,0.726,0.686,��,4.0,��
2019/09/10,06:10,0.731,1.016,0.703,1.265,0.902,0.416,0.726,0.686,���쐼,1.5,��
2019/09/10,06:20,0.730,1.018,0.704,1.264,0.902,0.417,0.726,0.686,�쐼,1.2,��
2019/09/10,06:30,0.728,1.016,0.703,1.264,0.901,0.415,0.727,0.685,���쐼,2.3,��
2019/09/10,06:40,0.727,1.016,0.704,1.262,0.903,0.416,0.726,0.688,���쐼,5.5,��
2019/09/10,06:50,0.730,1.015,0.704,1.261,0.900,0.414,0.727,0.686,���쐼,6.7,��
2019/09/10,07:00,0.728,1.015,0.704,1.265,0.904,0.415,0.726,0.688,��,4.9,��
2019/09/10,07:10,0.730,1.014,0.704,1.263,0.901,0.415,0.728,0.687,���k��,2.5,��
2019/09/10,07:20,0.730,1.017,0.705,1.264,0.904,0.416,0.727,0.688,�k��,0.8,��
2019/09/10,07:30,0.730,1.014,0.704,1.263,0.902,0.416,0.729,0.688,-,CALM,��
2019/09/10,07:40,0.730,1.015,0.704,1.264,0.903,0.415,0.728,0.687,��쓌,2.0,��
2019/09/10,07:50,0.729,1.016,0.703,1.265,0.903,0.417,0.727,0.688,��쐼,1.5,��
2019/09/10,08:00,0.730,1.018,0.704,1.265,0.904,0.417,0.728,0.687,�쓌,0.8,��
2019/09/10,08:10,0.731,1.017,0.703,1.265,0.905,0.417,0.729,0.687,�쓌,1.2,��
2019/09/10,08:20,0.732,1.015,0.706,1.263,0.904,0.415,0.726,0.688,�쓌,1.9,��
2019/09/10,08:30,0.730,1.018,0.705,1.263,0.905,0.417,0.726,0.685,�쓌,2.6,��
2019/09/10,08:40,0.731,1.015,0.704,1.263,0.906,0.418,0.727,0.683,���쓌,1.5,��
2019/09/10,08:50,0.730,1.017,0.705,1.266,0.906,0.415,0.724,0.686,���쓌,1.7,��
2019/09/10,09:00,0.731,1.016,0.704,1.265,0.905,0.418,0.725,0.686,���쓌,1.5,��
2019/09/10,09:10,0.731,1.017,0.702,1.266,0.908,0.418,0.727,0.685,���쓌,1.7,��
2019/09/10,09:20,0.732,1.016,0.705,1.268,0.907,0.416,0.727,0.686,-,CALM,��
2019/09/10,09:30,0.732,1.015,0.704,1.264,0.887,0.416,0.727,0.686,�쓌,1.2,��
2019/09/10,09:40,0.732,1.018,0.705,1.265,0.901,0.418,0.727,0.685,��쓌,1.5,��
2019/09/10,09:50,0.731,1.017,0.706,1.266,0.909,0.416,0.726,0.687,�쓌,0.9,��
2019/09/10,10:00,0.732,1.017,0.706,1.267,0.910,0.418,0.727,0.687,��,0.9,��
2019/09/10,10:10,0.735,1.015,0.703,1.265,0.904,0.419,0.728,0.687,�쓌,0.9,��
2019/09/10,10:20,0.736,1.021,0.708,1.266,0.914,0.418,0.728,0.687,��쓌,1.4,��
2019/09/10,10:30,0.737,1.020,0.708,1.267,0.911,0.419,0.729,0.687,�쐼,1.7,��
2019/09/10,10:40,0.736,1.022,0.707,1.267,0.914,0.420,0.728,0.687,��,1.2,��
2019/09/10,10:50,0.733,1.021,0.707,1.267,0.914,0.420,0.728,0.687,��,1.7,��
2019/09/10,11:00,0.734,1.022,0.709,1.268,0.916,0.420,0.729,0.687,�쓌,1.7,��
2019/09/10,11:10,0.733,1.022,0.706,1.267,0.915,0.418,0.729,0.687,���쓌,1.2,��
2019/09/10,11:20,0.736,1.026,0.708,1.270,0.916,0.418,0.729,0.688,�쓌,2.0,��
2019/09/10,11:30,0.733,1.028,0.709,1.270,0.915,0.418,0.729,0.689,�쓌,2.8,��
2019/09/10,11:40,0.734,1.027,0.708,1.270,0.917,0.419,0.728,0.687,���쓌,3.7,��
2019/09/10,11:50,0.738,1.025,0.709,1.270,0.918,0.421,0.730,0.689,���쓌,4.0,��
2019/09/10,12:00,0.737,1.027,0.710,1.269,0.920,0.420,0.728,0.688,���쓌,3.7,��
2019/09/10,12:10,0.734,1.033,0.710,1.270,0.921,0.419,0.730,0.688,���쓌,3.9,��
2019/09/10,12:20,0.736,1.028,0.711,1.269,0.919,0.419,0.730,0.688,�쓌,3.5,��
2019/09/10,12:30,0.739,1.030,0.711,1.270,0.921,0.420,0.729,0.689,���쓌,3.6,��
2019/09/10,12:40,0.739,1.029,0.711,1.270,0.918,0.420,0.730,0.690,�쓌,3.5,��
2019/09/10,12:50,0.740,1.029,0.712,1.268,0.919,0.420,0.729,0.689,���쓌,2.9,��
2019/09/10,13:00,0.738,1.032,0.711,1.270,0.919,0.420,0.730,0.688,���쓌,3.0,��
2019/09/10,13:10,0.738,1.032,0.711,1.271,0.921,0.420,0.729,0.690,�쓌,3.1,��
2019/09/10,13:20,0.737,1.032,0.712,1.271,0.920,0.419,0.728,0.688,�쓌,3.3,��
2019/09/10,13:30,0.737,1.027,0.711,1.270,0.922,0.420,0.730,0.691,�쓌,2.0,��
2019/09/10,13:40,0.740,1.028,0.711,1.271,0.921,0.420,0.730,0.688,���쓌,2.3,��
2019/09/10,13:50,0.739,1.027,0.711,1.271,0.921,0.420,0.730,0.689,��,2.0,��
2019/09/10,14:00,0.742,1.026,0.710,1.273,0.920,0.420,0.731,0.688,���쓌,1.2,��
2019/09/10,14:10,0.738,1.027,0.712,1.274,0.921,0.419,0.730,0.690,��,0.9,��
2019/09/10,14:20,0.739,1.029,0.710,1.275,0.923,0.418,0.731,0.691,��,1.5,��
2019/09/10,14:30,0.742,1.028,0.712,1.267,0.927,0.420,0.731,0.692,���쓌,1.5,��
2019/09/10,14:40,0.739,1.028,0.709,1.270,0.925,0.419,0.730,0.690,��,1.5,��
2019/09/10,14:50,0.738,1.031,0.714,1.273,0.925,0.420,0.732,0.691,��,1.5,��
2019/09/10,15:00,0.740,1.029,0.711,1.274,0.925,0.418,0.731,0.689,��,1.5,��
2019/09/10,15:10,0.743,1.031,0.712,1.274,0.923,0.418,0.732,0.687,���쓌,1.2,��
2019/09/10,15:20,0.740,1.033,0.713,1.272,0.924,0.418,0.731,0.691,���쓌,0.9,��
2019/09/10,15:30,0.739,1.034,0.712,1.272,0.927,0.419,0.731,0.689,���쓌,1.1,��
2019/09/10,15:40,0.737,1.034,0.711,1.273,0.928,0.419,0.732,0.688,��쓌,1.2,��
2019/09/10,15:50,0.739,1.035,0.716,1.272,0.926,0.418,0.731,0.689,��쓌,1.1,��
2019/09/10,16:00,0.740,1.035,0.715,1.274,0.928,0.420,0.733,0.689,�쓌,1.7,��
2019/09/10,16:10,0.738,1.037,0.716,1.273,0.928,0.420,0.731,0.689,�쓌,1.1,��
2019/09/10,16:20,0.739,1.035,0.717,1.273,0.925,0.418,0.733,0.690,���쓌,1.5,��
2019/09/10,16:30,0.739,1.037,0.715,1.273,0.927,0.421,0.734,0.690,���쓌,1.7,��
2019/09/10,16:40,0.742,1.038,0.714,1.274,0.924,0.420,0.731,0.689,���쓌,1.2,��
2019/09/10,16:50,0.739,1.037,0.715,1.272,0.924,0.419,0.732,0.688,���쓌,1.2,��
2019/09/10,17:00,0.738,1.036,0.715,1.275,0.926,0.419,0.731,0.691,��,1.1,��
2019/09/10,17:10,0.739,1.037,0.715,1.273,0.927,0.418,0.732,0.688,���k��,1.5,��
2019/09/10,17:20,0.737,1.035,0.716,1.271,0.924,0.419,0.730,0.689,���k��,1.2,��
2019/09/10,17:30,0.737,1.035,0.713,1.273,0.926,0.418,0.732,0.690,��,0.9,��
2019/09/10,17:40,0.738,1.035,0.714,1.275,0.923,0.418,0.731,0.689,���k��,0.8,��
2019/09/10,17:50,0.739,1.035,0.714,1.274,0.924,0.418,0.731,0.690,��,1.4,��
2019/09/10,18:00,0.740,1.035,0.712,1.273,0.924,0.419,0.729,0.691,��,1.2,��
2019/09/10,18:10,0.739,1.036,0.712,1.274,0.925,0.416,0.730,0.689,���쓌,1.5,��
2019/09/10,18:20,0.738,1.037,0.714,1.275,0.926,0.417,0.729,0.689,�쓌,1.2,��
2019/09/10,18:30,0.738,1.034,0.714,1.276,0.923,0.417,0.730,0.689,��쓌,1.5,��
2019/09/10,18:40,0.740,1.035,0.713,1.274,0.924,0.417,0.730,0.690,��쓌,1.9,��
2019/09/10,18:50,0.738,1.035,0.713,1.274,0.925,0.418,0.730,0.691,��쓌,1.9,��
2019/09/10,19:00,0.738,1.038,0.714,1.273,0.924,0.419,0.730,0.690,��,1.5,��
2019/09/10,19:10,0.740,1.035,0.715,1.278,0.925,0.419,0.731,0.689,��,1.7,��
2019/09/10,19:20,0.740,1.037,0.715,1.276,0.926,0.418,0.731,0.689,��,1.7,��
2019/09/10,19:30,0.739,1.038,0.715,1.278,0.926,0.419,0.731,0.690,��,1.7,��
2019/09/10,19:40,0.741,1.037,0.714,1.275,0.929,0.419,0.732,0.690,�쐼,1.5,��
2019/09/10,19:50,0.739,1.038,0.716,1.278,0.927,0.419,0.730,0.688,��쐼,1.7,��
2019/09/10,20:00,0.739,1.038,0.716,1.277,0.926,0.419,0.731,0.690,��쐼,1.4,��
2019/09/10,20:10,0.740,1.037,0.715,1.278,0.927,0.418,0.731,0.691,�쐼,1.9,��
2019/09/10,20:20,0.740,1.040,0.715,1.278,0.927,0.420,0.730,0.689,�쐼,2.5,��
2019/09/10,20:30,0.739,1.040,0.715,1.278,0.926,0.419,0.730,0.689,�쐼,2.6,��
2019/09/10,20:40,0.737,1.038,0.714,1.276,0.927,0.420,0.731,0.692,��쐼,2.8,��
2019/09/10,20:50,0.740,1.036,0.714,1.274,0.924,0.418,0.730,0.689,��,2.0,��
2019/09/10,21:00,0.741,1.038,0.713,1.279,0.927,0.421,0.731,0.690,��쐼,2.3,��
2019/09/10,21:10,0.738,1.036,0.714,1.275,0.927,0.418,0.732,0.691,��,2.5,��
2019/09/10,21:20,0.740,1.038,0.714,1.277,0.925,0.420,0.733,0.691,��쐼,1.7,��
2019/09/10,21:30,0.739,1.039,0.715,1.280,0.925,0.421,0.732,0.689,��쐼,2.0,��
2019/09/10,21:40,0.739,1.037,0.717,1.278,0.928,0.420,0.732,0.693,��쐼,2.3,��
2019/09/10,21:50,0.740,1.035,0.715,1.279,0.926,0.419,0.729,0.690,��,1.1,��
2019/09/10,22:00,0.739,1.038,0.716,1.276,0.927,0.421,0.732,0.690,��쐼,1.7,��
2019/09/10,22:10,0.740,1.037,0.714,1.278,0.927,0.420,0.731,0.690,��,2.5,��
2019/09/10,22:20,0.737,1.036,0.714,1.277,0.925,0.420,0.731,0.691,��,1.9,��
2019/09/10,22:30,0.740,1.037,0.715,1.278,0.928,0.419,0.731,0.690,��쐼,2.3,��
2019/09/10,22:40,0.739,1.038,0.716,1.278,0.927,0.419,0.732,0.692,��쐼,2.6,��
2019/09/10,22:50,0.740,1.040,0.717,1.278,0.929,0.420,0.731,0.689,��쐼,2.3,��
2019/09/10,23:00,0.740,1.037,0.715,1.281,0.928,0.420,0.731,0.690,��쐼,1.9,��
2019/09/10,23:10,0.738,1.040,0.716,1.278,0.928,0.419,0.732,0.691,��쐼,1.7,��
2019/09/10,23:20,0.738,1.037,0.715,1.277,0.928,0.420,0.731,0.692,��쐼,1.5,��
2019/09/10,23:30,0.739,1.036,0.713,1.280,0.928,0.419,0.733,0.690,��쐼,1.4,��
2019/09/10,23:40,0.738,1.037,0.714,1.277,0.927,0.420,0.732,0.689,��쐼,1.2,��
2019/09/10,23:50,0.741,1.039,0.716,1.279,0.925,0.422,0.731,0.690,��쐼,0.9,��
